Topeka, KS

2:26 PM CDT on October 18, 2019 (GMT -0500)
Billard Municipal

Weather History for KTOP - August, 2019

Change the Weather History Date:

Friday, August 30, 2019

  Actual Average Record
Temperature  
Mean Temperature 72 °F 75 °F  
Max Temperature 80 °F 86 °F 107 °F (1947)
Min Temperature 64 °F 63 °F 45 °F (1915)
Degree Days  
Heating Degree Days 0 0  
Month to date heating degree days 0 0  
Since 1 June heating degree days 0 8  
Since 1 July heating degree days 0 0  
Cooling Degree Days 7 10  
Month to date cooling degree days 364 376  
Year to date cooling degree days 1243 1218  
Since 1 June cooling degree days 1131 1092  
Growing Degree Days 22 (Base 50)    
Moisture  
Dew Point 63 °F    
Average Humidity 76    
Maximum Humidity 93    
Minimum Humidity 58    
Precipitation  
Precipitation 0.81 in 0.14 in 3.27 in (2003)
Month to date precipitation 12.03 4.11  
Year to date precipitation 40.89 26.44  
Snow  
Snow 0.00 in 0.00 in 0.00 in ()
Month to date snowfall T 0.0  
Year to date snowfall 18.5 11.3  
Since 1 July snowfall T 0.0  
Snow Depth 0.00 in    
Sea Level Pressure  
Sea Level Pressure 30.07 in    
Wind  
Wind Speed 8 mph (NE)    
Max Wind Speed 32 mph    
Max Gust Speed 50 mph    
Visibility 7 miles    
Events Fog , Rain , Thunderstorm    
T = Trace of Precipitation, MM = Missing Value Source: NWS Daily Summary

Daily Weather History Graph

Daily Weather History Graph

Search for Another Location

Airport or City:

Astronomy

Aug. 30, 2019 Rise Set
Actual Time 6:49 AM CDT 7:56 PM CDT
Civil Twilight 6:21 AM CDT 8:23 PM CDT
Nautical Twilight 5:48 AM CDT 8:56 PM CDT
Astronomical Twilight 5:14 AM CDT 9:30 PM CDT
Moon 6:51 AM CDT (8/30) 8:33 PM CDT (8/30)
Length of Visible Light 14h 02m
Length of Day
13h 07m
New Moon, 0% of the Moon is Illuminated
Aug 30
New Moon
Sep 5
First Quarter
Sep 13
Full
Sep 21
Last Quarter
Sep 28
New

Hourly Weather History & Observations

Time (CDT) Temp. Dew Point Humidity Pressure Visibility Wind Dir Wind Speed Gust Speed Precip Events Conditions
12:02 AM 68.0 °F 64.9 °F 90% 30.03 in 5.0 mi North 13.8 mph 24.2 mph 0.00 in Rain , Thunderstorm Thunderstorms and Rain
12:06 AM 68.0 °F 64.9 °F 90% 30.03 in 1.8 mi North 29.9 mph 46.0 mph 0.02 in Rain , Thunderstorm Heavy Thunderstorms and Rain
12:15 AM 66.9 °F 64.0 °F 90% 30.06 in 0.5 mi NNE 26.5 mph 47.2 mph 0.38 in Fog , Rain , Thunderstorm Heavy Thunderstorms and Rain
12:26 AM 66.0 °F 64.9 °F 96% 29.99 in 0.5 mi NE 35.7 mph 48.3 mph 1.27 in Fog , Rain , Thunderstorm Heavy Thunderstorms and Rain
12:34 AM 66.9 °F 64.9 °F 93% 30.03 in 1.0 mi ENE 24.2 mph 48.3 mph 1.63 in Rain , Thunderstorm Heavy Thunderstorms and Rain
12:51 AM 66.2 °F 64.4 °F 94% 30.00 in 2.0 mi ENE 34.5 mph 52.9 mph 1.91 in Rain , Thunderstorm Heavy Thunderstorms and Rain
12:53 AM 66.9 °F 64.0 °F 90% 29.98 in 2.0 mi ENE 36.8 mph 56.4 mph 1.94 in Rain , Thunderstorm Heavy Thunderstorms and Rain
1:04 AM 66.9 °F 64.0 °F 90% 30.00 in 4.0 mi East 31.1 mph 49.5 mph 0.05 in Rain , Thunderstorm Rain
1:15 AM 68.0 °F 63.0 °F 84% 30.02 in 8.0 mi East 25.3 mph 38.0 mph 0.05 in Rain , Thunderstorm Light Thunderstorms and Rain
1:37 AM 66.9 °F 63.0 °F 87% 30.01 in 2.5 mi East 15.0 mph 33.4 mph 0.09 in Rain , Thunderstorm Rain
1:48 AM 66.2 °F 62.6 °F 88% 30.02 in 5.0 mi East 18.4 mph 33.4 mph 0.12 in Rain , Thunderstorm Rain
1:53 AM 66.9 °F 63.0 °F 87% 30.01 in 4.0 mi ENE 16.1 mph 33.4 mph 0.14 in Rain , Thunderstorm Heavy Thunderstorms and Rain
2:53 AM 66.0 °F 63.0 °F 90% 30.06 in 7.0 mi SE 10.4 mph - 0.18 in Rain , Thunderstorm Light Thunderstorms and Rain
3:20 AM 66.9 °F 63.0 °F 87% 30.11 in 6.0 mi ESE 11.5 mph - 0.03 in Rain , Thunderstorm Rain
3:41 AM 66.9 °F 63.0 °F 87% 30.10 in 5.0 mi SE 12.7 mph - 0.14 in Rain , Thunderstorm Heavy Thunderstorms and Rain
3:53 AM 66.9 °F 63.0 °F 87% 30.07 in 6.0 mi SE 13.8 mph - 0.21 in Rain , Thunderstorm Thunderstorms and Rain
4:23 AM 66.9 °F 63.0 °F 87% 30.11 in 6.0 mi SSE 12.7 mph - 0.12 in Rain Rain
4:53 AM 66.9 °F 63.0 °F 87% 30.07 in 6.0 mi SSE 9.2 mph - 0.24 in Rain Rain
6:53 AM 66.9 °F 62.1 °F 84% 30.00 in 10.0 mi North 11.5 mph - 0.00 in   Clear
7:53 AM 66.9 °F 63.0 °F 87% 30.04 in 10.0 mi NE 4.6 mph - N/A   Clear
8:53 AM 69.1 °F 64.0 °F 84% 30.06 in 10.0 mi NNE 5.8 mph - N/A   Clear
9:53 AM 72.0 °F 64.0 °F 76% 30.09 in 10.0 mi North 8.1 mph - N/A   Mostly Cloudy
10:53 AM 73.0 °F 64.9 °F 76% 30.12 in 10.0 mi NE 6.9 mph - N/A   Mostly Cloudy
11:15 AM 72.0 °F 64.9 °F 78% 30.13 in 10.0 mi NE 8.1 mph - N/A   Mostly Cloudy
11:39 AM 73.0 °F 64.9 °F 76% 30.13 in 10.0 mi NE 8.1 mph - N/A   Overcast
11:53 AM 73.0 °F 64.0 °F 73% 30.11 in 10.0 mi NNE 11.5 mph - N/A   Overcast
12:53 PM 75.0 °F 64.0 °F 69% 30.11 in 10.0 mi Variable 5.8 mph - N/A   Overcast
1:53 PM 78.1 °F 64.0 °F 62% 30.10 in 10.0 mi North 10.4 mph - N/A   Clear
2:53 PM 79.0 °F 66.0 °F 64% 30.08 in 10.0 mi Variable 6.9 mph - N/A   Clear
3:53 PM 79.0 °F 63.0 °F 58% 30.09 in 10.0 mi NE 9.2 mph - N/A   Partly Cloudy
4:53 PM 79.0 °F 63.0 °F 58% 30.11 in 10.0 mi NNE 12.7 mph - N/A   Scattered Clouds
5:53 PM 75.9 °F 62.1 °F 62% 30.12 in 10.0 mi NNE 8.1 mph - N/A   Partly Cloudy
6:53 PM 75.9 °F 63.0 °F 64% 30.11 in 10.0 mi NNE 6.9 mph - N/A   Partly Cloudy
7:53 PM 72.0 °F 64.0 °F 76% 30.12 in 10.0 mi NNE 3.5 mph - N/A   Clear
8:53 PM 69.1 °F 63.0 °F 81% 30.12 in 10.0 mi Calm Calm - N/A   Clear
9:53 PM 68.0 °F 62.1 °F 81% 30.13 in 10.0 mi ENE 5.8 mph - N/A   Clear
10:53 PM 64.9 °F 62.1 °F 90% 30.14 in 10.0 mi WNW 3.5 mph - N/A   Clear
11:53 PM 64.9 °F 60.1 °F 84% 30.15 in 10.0 mi NE 3.5 mph - N/A   Clear